GW3294 Weather Reports


Display with metric or nautical units.
time (UTC)temp
F
wind
direction
speed
MPH
gust
MPH
rain 1hr
in
rain 24hr
in
rain mn
in
humidity
%
barometer
mb
20260902230258 98 262 1.0 3.0 0.00 0.00 0.00 42 1016.2
20260902225753 98 107 1.0 3.0 0.00 0.00 0.00 42 1016.3
20260902225248 101 336 0.0 2.0 0.00 0.00 0.00 44 1016.2
20260902224747 102 243 0.0 3.0 0.00 0.00 0.00 42 1016.1
20260902224242 100 284 0.0 2.0 0.00 0.00 0.00 42 1016.1
20260902223738 99 183 2.0 3.0 0.00 0.00 0.00 40 1016.4
20260902223237 101 139 0.0 3.0 0.00 0.00 0.00 41 1016.5
20260902222736 101 125 0.0 2.0 0.00 0.00 0.00 41 1016.3
20260902222230 100 250 0.0 3.0 0.00 0.00 0.00 44 1016.4
20260902221725 101 7 1.0 3.0 0.00 0.00 0.00 43 1016.3
20260902221219 102 223 2.0 2.0 0.00 0.00 0.00 38 1016.3
20260902220714 102 235 1.0 2.0 0.00 0.00 0.00 41 1016.2
20260902220214 104 232 1.0 2.0 0.00 0.00 0.00 37 1016.5
20260902215710 102 260 1.0 5.0 0.00 0.00 0.00 38 1016.2
20260902215205 102 217 0.0 2.0 0.00 0.00 0.00 42 1016.5
20260902214701 103 150 1.0 3.0 0.00 0.00 0.00 39 1016.5
20260902214159 101 270 3.0 6.0 0.00 0.00 0.00 40 1016.5
20260902213655 104 89 1.0 2.0 0.00 0.00 0.00 38 1016.4
20260902213155 101 98 1.0 5.0 0.00 0.00 0.00 40 1016.5
20260902212649 103 81 0.0 5.0 0.00 0.00 0.00 39 1016.7
20260902212146 103 238 0.0 5.0 0.00 0.00 0.00 39 1016.8
20260902211642 103 207 3.0 6.0 0.00 0.00 0.00 38 1016.8
20260902211137 104 193 1.0 5.0 0.00 0.00 0.00 40 1016.8
20260902210636 103 104 2.0 5.0 0.00 0.00 0.00 38 1016.9
20260902210132 105 182 0.0 4.0 0.00 0.00 0.00 38 1017.0
20260902205630 104 207 3.0 8.0 0.00 0.00 0.00 38 1017.0
20260902205126 103 197 3.0 4.0 0.00 0.00 0.00 38 1016.8
20260902204626 102 170 0.0 4.0 0.00 0.00 0.00 41 1017.0
20260902204115 102 239 3.0 4.0 0.00 0.00 0.00 39 1017.1
20260902203611 100 291 2.0 4.0 0.00 0.00 0.00 45 1017.2
20260902203110 102 259 1.0 2.0 0.00 0.00 0.00 42 1017.2
20260902202606 100 180 2.0 4.0 0.00 0.00 0.00 43 1017.3
20260902202103 103 197 0.0 2.0 0.00 0.00 0.00 42 1017.4
20260902201558 103 245 3.0 3.0 0.00 0.00 0.00 40 1017.4
20260902201057 104 168 2.0 7.0 0.00 0.00 0.00 41 1017.5
20260902200552 106 179 2.0 3.0 0.00 0.00 0.00 38 1017.3
20260902200048 103 161 1.0 4.0 0.00 0.00 0.00 41 1017.6
20260902195543 103 112 1.0 5.0 0.00 0.00 0.00 41 1017.7
20260902195042 103 277 5.0 7.0 0.00 0.00 0.00 41 1017.6
20260902194542 104 251 3.0 3.0 0.00 0.00 0.00 42 1017.6
20260902194037 104 223 2.0 3.0 0.00 0.00 0.00 41 1017.6
20260902193533 104 243 2.0 3.0 0.00 0.00 0.00 41 1017.8
20260902193032 105 239 2.0 3.0 0.00 0.00 0.00 40 1018.0
20260902192531 103 259 3.0 7.0 0.00 0.00 0.00 44 1017.8
20260902192030 104 194 1.0 4.0 0.00 0.00 0.00 41 1017.8
20260902191526 100 269 4.0 4.0 0.00 0.00 0.00 43 1018.2
20260902191020 100 251 3.0 4.0 0.00 0.00 0.00 43 1018.0
20260902190516 102 262 2.0 5.0 0.00 0.00 0.00 42 1018.0
20260902190011 103 197 1.0 6.0 0.00 0.00 0.00 42 1017.9
20260902185507 102 172 3.0 5.0 0.00 0.00 0.00 41 1018.2
20260902185002 102 273 3.0 5.0 0.00 0.00 0.00 44 1018.4
20260902184457 101 226 2.0 4.0 0.00 0.00 0.00 44 1018.5
20260902183953 100 259 3.0 8.0 0.00 0.00 0.00 47 1018.5
20260902183449 101 259 2.0 6.0 0.00 0.00 0.00 45 1018.3
20260902182946 102 274 1.0 6.0 0.00 0.00 0.00 47 1018.5
20260902182442 101 174 3.0 5.0 0.00 0.00 0.00 44 1018.5
20260902181937 101 206 4.0 5.0 0.00 0.00 0.00 45 1018.7
20260902181432 101 230 3.0 4.0 0.00 0.00 0.00 45 1018.7
20260902180926 100 248 4.0 5.0 0.00 0.00 0.00 46 1018.6
20260902180422 100 125 6.0 6.0 0.00 0.00 0.00 47 1018.7
20260902175917 101 266 3.0 4.0 0.00 0.00 0.00 48 1018.9
20260902175413 101 206 1.0 4.0 0.00 0.00 0.00 46 1018.7
20260902174908 100 168 3.0 6.0 0.00 0.00 0.00 46 1018.9
20260902174405 98 202 1.0 8.0 0.00 0.00 0.00 48 1019.1
20260902173900 99 265 4.0 5.0 0.00 0.00 0.00 49 1019.0
20260902173359 99 119 4.0 6.0 0.00 0.00 0.00 50 1019.1
20260902172855 98 273 4.0 7.0 0.00 0.00 0.00 50 1019.3
20260902172354 98 274 3.0 5.0 0.00 0.00 0.00 50 1019.3
20260902171849 99 249 3.0 7.0 0.00 0.00 0.00 49 1019.4
20260902171344 99 143 2.0 5.0 0.00 0.00 0.00 49 1019.5
20260902170841 98 267 4.0 5.0 0.00 0.00 0.00 52 1019.4
20260902170336 97 249 3.0 5.0 0.00 0.00 0.00 50 1019.5
20260902165831 98 247 3.0 5.0 0.00 0.00 0.00 51 1019.6
20260902165330 98 131 5.0 7.0 0.00 0.00 0.00 49 1019.8
20260902164825 96 234 3.0 8.0 0.00 0.00 0.00 51 1019.8
20260902164320 96 160 5.0 7.0 0.00 0.00 0.00 51 1019.9
20260902163814 96 272 4.0 7.0 0.00 0.00 0.00 51 1019.5
20260902163314 97 181 4.0 6.0 0.00 0.00 0.00 51 1019.8
20260902162813 96 253 3.0 6.0 0.00 0.00 0.00 52 1019.7
20260902162313 96 207 3.0 6.0 0.00 0.00 0.00 51 1019.9
20260902161808 96 208 2.0 6.0 0.00 0.00 0.00 51 1019.8
20260902161304 96 215 2.0 6.0 0.00 0.00 0.00 52 1019.8
20260902160800 96 258 2.0 4.0 0.00 0.00 0.00 53 1019.9
20260902160255 96 209 2.0 5.0 0.00 0.00 0.00 51 1019.8
20260902155753 95 198 3.0 6.0 0.00 0.00 0.00 53 1019.8
20260902155251 94 236 6.0 8.0 0.00 0.00 0.00 54 1020.0
20260902154741 94 200 1.0 6.0 0.00 0.00 0.00 55 1020.0
20260902154236 93 207 1.0 6.0 0.00 0.00 0.00 55 1020.0
20260902153729 93 249 4.0 7.0 0.00 0.00 0.00 56 1020.1
20260902153224 92 260 3.0 7.0 0.00 0.00 0.00 57 1019.9
20260902152720 92 192 4.0 6.0 0.00 0.00 0.00 57 1019.9
20260902152215 91 264 3.0 7.0 0.00 0.00 0.00 59 1019.7
20260902151711 91 296 2.0 4.0 0.00 0.00 0.00 59 1019.7
20260902151206 90 296 0.0 7.0 0.00 0.00 0.00 60 1019.9
20260902150701 90 269 2.0 6.0 0.00 0.00 0.00 60 1019.8
20260902150157 90 3 1.0 5.0 0.00 0.00 0.00 61 1019.9
20260902145656 91 238 2.0 5.0 0.00 0.00 0.00 63 1019.7
20260902145155 89 277 2.0 6.0 0.00 0.00 0.00 62 1019.9
20260902144652 89 210 3.0 4.0 0.00 0.00 0.00 63 1019.9
20260902144147 89 264 4.0 5.0 0.00 0.00 0.00 64 1019.6
20260902143642 88 299 1.0 3.0 0.00 0.00 0.00 64 1019.6
20260902143137 87 303 2.0 3.0 0.00 0.00 0.00 65 1019.6
20260902142633 87 198 1.0 3.0 0.00 0.00 0.00 65 1019.9
20260902142129 88 346 0.0 3.0 0.00 0.00 0.00 65 1019.7
20260902141628 86 303 2.0 2.0 0.00 0.00 0.00 69 1019.9
20260902141124 85 274 1.0 3.0 0.00 0.00 0.00 70 1019.8
20260902140619 85 343 1.0 5.0 0.00 0.00 0.00 71 1019.8
20260902140114 84 268 1.0 2.0 0.00 0.00 0.00 73 1019.8
20260902135613 84 242 0.0 2.0 0.00 0.00 0.00 73 1020.0
20260902135108 83 242 0.0 3.0 0.00 0.00 0.00 73 1020.1
20260902134603 82 242 0.0 3.0 0.00 0.00 0.00 74 1020.0
20260902134058 82 199 0.0 1.0 0.00 0.00 0.00 75 1020.0
20260902133553 82 279 3.0 3.0 0.00 0.00 0.00 77 1020.0
20260902133053 82 104 0.0 1.0 0.00 0.00 0.00 77 1020.0
20260902132548 82 186 0.0 2.0 0.00 0.00 0.00 75 1020.1
20260902132043 81 242 0.0 2.0 0.00 0.00 0.00 76 1020.2
20260902131539 81 172 2.0 3.0 0.00 0.00 0.00 76 1019.9
20260902131034 81 245 2.0 2.0 0.00 0.00 0.00 77 1020.1
20260902130529 80 177 0.0 2.0 0.00 0.00 0.00 77 1019.9
20260902130025 80 181 1.0 3.0 0.00 0.00 0.00 77 1019.9
20260902125521 78 255 0.0 2.0 0.00 0.00 0.00 80 1020.1
20260902125016 78 189 0.0 3.0 0.00 0.00 0.00 83 1020.1
20260902124512 78 135 0.0 3.0 0.00 0.00 0.00 83 1019.9
20260902124007 77 311 1.0 2.0 0.00 0.00 0.00 82 1019.9
20260902123503 76 32 0.0 1.0 0.00 0.00 0.00 87 1020.0
20260902123002 76 37 0.0 1.0 0.00 0.00 0.00 88 1019.8
20260902122457 75 297 0.0 2.0 0.00 0.00 0.00 89 1019.9
20260902121953 75 75 0.0 2.0 0.00 0.00 0.00 90 1019.7
20260902121448 75 50 0.0 2.0 0.00 0.00 0.00 90 1019.8
20260902120943 75 135 0.0 1.0 0.00 0.00 0.00 90 1019.5
20260902120439 75 129 0.0 2.0 0.00 0.00 0.00 89 1019.6
20260902115938 74 109 0.0 1.0 0.00 0.00 0.00 88 1019.5
20260902115435 75 157 0.0 2.0 0.00 0.00 0.00 89 1019.4
20260902114931 75 116 0.0 2.0 0.00 0.00 0.00 89 1019.4
20260902114426 75 130 0.0 0.0 0.00 0.00 0.00 88 1019.5
20260902113921 75 113 0.0 1.0 0.00 0.00 0.00 89 1019.5
20260902113417 75 140 1.0 2.0 0.00 0.00 0.00 88 1019.7
20260902112916 75 50 0.0 1.0 0.00 0.00 0.00 88 1019.4
20260902112413 76 89 0.0 1.0 0.00 0.00 0.00 87 1019.3
20260902111908 76 9 0.0 1.0 0.00 0.00 0.00 87 1019.3
20260902111405 76 230 0.0 0.0 0.00 0.00 0.00 86 1019.2
20260902110900 76 148 0.0 2.0 0.00 0.00 0.00 86 1019.4
20260902110356 77 66 0.0 2.0 0.00 0.00 0.00 84 1019.1
20260902105856 78 117 0.0 2.0 0.00 0.00 0.00 83 1019.4
20260902105351 78 322 0.0 2.0 0.00 0.00 0.00 83 1019.2
20260902104845 79 183 0.0 2.0 0.00 0.00 0.00 79 1019.1
20260902104341 79 204 4.0 5.0 0.00 0.00 0.00 75 1019.3
20260902103836 78 75 0.0 1.0 0.00 0.00 0.00 78 1019.1
20260902103331 80 185 0.0 1.0 0.00 0.00 0.00 80 1019.3
20260902102826 81 310 0.0 1.0 0.00 0.00 0.00 77 1019.0
20260902102324 81 257 1.0 1.0 0.00 0.00 0.00 73 1019.1
20260902101819 81 212 0.0 3.0 0.00 0.00 0.00 74 1019.1
20260902101318 82 297 0.0 2.0 0.00 0.00 0.00 72 1019.1
20260902100812 82 77 2.0 5.0 0.00 0.00 0.00 71 1019.1
20260902100307 82 228 2.0 5.0 0.00 0.00 0.00 71 1018.9
20260902095802 82 227 1.0 6.0 0.00 0.00 0.00 73 1019.0
20260902095306 82 169 1.0 5.0 0.00 0.00 0.00 72 1019.0
20260902094756 82 184 1.0 3.0 0.00 0.00 0.00 72 1019.0
20260902094253 82 256 0.0 3.0 0.00 0.00 0.00 71 1019.0
20260902093752 82 123 0.0 3.0 0.00 0.00 0.00 72 1018.9
20260902093247 81 157 2.0 4.0 0.00 0.00 0.00 73 1018.9
20260902092746 81 193 1.0 2.0 0.00 0.00 0.00 73 1018.6
20260902092242 81 184 0.0 2.0 0.00 0.00 0.00 75 1018.8
20260902091741 80 207 1.0 3.0 0.00 0.00 0.00 76 1018.6
20260902091237 80 137 0.0 2.0 0.00 0.00 0.00 76 1018.8
20260902090733 80 234 2.0 2.0 0.00 0.00 0.00 77 1018.7
20260902090232 80 182 1.0 2.0 0.00 0.00 0.00 79 1018.7
20260902085727 79 184 0.0 2.0 0.00 0.00 0.00 79 1018.8
20260902085222 79 152 0.0 2.0 0.00 0.00 0.00 79 1018.7
20260902084718 79 162 0.0 2.0 0.00 0.00 0.00 79 1018.8
20260902084214 80 172 1.0 3.0 0.00 0.00 0.00 79 1018.9
20260902083709 80 269 0.0 2.0 0.00 0.00 0.00 76 1018.6
20260902083208 81 166 0.0 2.0 0.00 0.00 0.00 76 1018.7
20260902082704 80 195 0.0 1.0 0.00 0.00 0.00 76 1018.8
20260902082200 81 117 0.0 2.0 0.00 0.00 0.00 75 1018.5
20260902081656 80 154 0.0 2.0 0.00 0.00 0.00 76 1018.5
20260902081151 80 295 1.0 1.0 0.00 0.00 0.00 76 1018.6
20260902080646 80 241 1.0 2.0 0.00 0.00 0.00 77 1018.6
20260902080143 79 124 0.0 2.0 0.00 0.00 0.00 78 1018.4
20260902075643 79 217 0.0 2.0 0.00 0.00 0.00 81 1018.6
20260902075139 79 152 2.0 3.0 0.00 0.00 0.00 78 1018.5
20260902074634 78 154 0.0 2.0 0.00 0.00 0.00 84 1018.7
20260902074129 77 92 0.0 2.0 0.00 0.00 0.00 85 1018.8
20260902073624 77 130 0.0 3.0 0.00 0.00 0.00 86 1018.8
20260902073120 77 255 0.0 1.0 0.00 0.00 0.00 85 1018.6
20260902072616 77 186 0.0 1.0 0.00 0.00 0.00 85 1018.7
20260902072112 77 75 0.0 1.0 0.00 0.00 0.00 87 1018.5
20260902071607 77 29 0.0 2.0 0.00 0.00 0.00 85 1018.6
20260902071103 77 147 0.0 1.0 0.00 0.00 0.00 86 1018.6
20260902070558 77 118 2.0 3.0 0.00 0.00 0.00 86 1018.8
20260902070053 77 104 0.0 2.0 0.00 0.00 0.00 86 1018.5
20260902065546 78 142 0.0 2.0 0.00 0.00 0.00 85 1018.7
20260902065042 78 129 0.0 0.0 0.00 0.00 0.00 85 1018.6
20260902064538 78 147 0.0 2.0 0.00 0.00 0.00 84 1018.6
20260902064033 77 160 0.0 2.0 0.00 0.00 0.00 84 1018.9
20260902063532 77 157 0.0 2.0 0.00 0.00 0.00 85 1018.7
20260902063028 77 96 1.0 2.0 0.00 0.00 0.00 85 1018.7
20260902062527 78 95 0.0 1.0 0.00 0.00 0.00 84 1018.8
20260902062023 78 129 0.0 0.0 0.00 0.00 0.00 84 1019.1
20260902061522 78 130 0.0 1.0 0.00 0.00 0.00 84 1018.8
20260902061018 78 124 0.0 2.0 0.00 0.00 0.00 84 1019.0
20260902060515 78 113 1.0 1.0 0.00 0.00 0.00 83 1018.8
20260902060011 78 142 0.0 1.0 0.00 0.00 0.00 82 1018.8
20260902055506 78 147 0.0 2.0 0.00 0.00 0.00 83 1018.7
20260902055001 79 150 0.0 2.0 0.00 0.00 0.00 82 1018.8
20260902054456 79 164 0.0 0.0 0.00 0.00 0.00 81 1018.7
20260902053952 79 205 0.0 0.0 0.00 0.00 0.00 79 1018.8
20260902053452 80 37 0.0 1.0 0.00 0.00 0.00 79 1018.9
20260902052951 80 154 0.0 1.0 0.00 0.00 0.00 80 1018.7
20260902052446 80 166 0.0 0.0 0.00 0.00 0.00 77 1018.8
20260902051942 80 195 0.0 0.0 0.00 0.00 0.00 79 1018.5
20260902051437 80 142 0.0 1.0 0.00 0.00 0.00 79 1018.7
20260902050936 80 205 0.0 1.0 0.00 0.00 0.00 78 1018.8
20260902050435 81 164 0.0 1.0 0.00 0.00 0.00 78 1018.6
20260902045930 81 205 0.0 0.0 0.00 0.00 0.00 75 1018.6
20260902045426 82 205 0.0 0.0 0.00 0.00 0.00 75 1018.7
20260902044922 82 195 0.0 2.0 0.00 0.00 0.00 75 1018.7
20260902044418 82 89 0.0 2.0 0.00 0.00 0.00 74 1018.5
20260902043913 83 75 0.0 2.0 0.00 0.00 0.00 72 1018.5
20260902043408 83 189 0.0 1.0 0.00 0.00 0.00 72 1018.6
20260902042903 83 164 0.0 1.0 0.00 0.00 0.00 71 1018.6
20260902042402 83 159 0.0 2.0 0.00 0.00 0.00 70 1018.5
20260902041857 82 343 0.0 1.0 0.00 0.00 0.00 71 1018.5
20260902041352 82 240 0.0 2.0 0.00 0.00 0.00 72 1018.6
20260902040850 82 117 0.0 2.0 0.00 0.00 0.00 74 1018.5
20260902040346 81 142 0.0 3.0 0.00 0.00 0.00 73 1018.5
20260902035844 81 166 0.0 1.0 0.00 0.00 0.00 74 1018.7
20260902035340 82 195 0.0 1.0 0.00 0.00 0.00 75 1018.5
20260902034839 82 217 0.0 2.0 0.00 0.00 0.00 72 1018.6
20260902034335 83 180 0.0 2.0 0.00 0.00 0.00 71 1018.7
20260902033832 83 352 0.0 1.0 0.00 0.00 0.00 69 1018.6
20260902033328 83 172 1.0 2.0 0.00 0.00 0.00 71 1018.6
20260902032827 82 177 0.0 1.0 0.00 0.00 0.00 71 1018.4
20260902032322 82 242 0.0 1.0 0.00 0.00 0.00 73 1018.6
20260902031821 82 165 1.0 1.0 0.00 0.00 0.00 74 1018.6
20260902031318 82 151 0.0 2.0 0.00 0.00 0.00 73 1018.5
20260902030813 83 135 0.0 0.0 0.00 0.00 0.00 70 1018.5
20260902030308 83 135 0.0 1.0 0.00 0.00 0.00 71 1018.5
20260902025806 84 224 0.0 2.0 0.00 0.00 0.00 70 1018.4
20260902025306 84 173 0.0 0.0 0.00 0.00 0.00 67 1018.5
20260902024756 85 336 0.0 1.0 0.00 0.00 0.00 65 1018.4
20260902024252 85 165 0.0 1.0 0.00 0.00 0.00 67 1018.5
20260902023748 86 269 0.0 1.0 0.00 0.00 0.00 62 1018.4
20260902023243 86 230 0.0 1.0 0.00 0.00 0.00 62 1018.2
20260902022742 86 6 0.0 2.0 0.00 0.00 0.00 61 1018.2
20260902022238 86 242 0.0 1.0 0.00 0.00 0.00 61 1018.2
20260902021734 86 178 1.0 3.0 0.00 0.00 0.00 65 1018.2
20260902021233 86 336 0.0 2.0 0.00 0.00 0.00 63 1018.2
20260902020730 86 79 0.0 2.0 0.00 0.00 0.00 63 1018.1
20260902020225 86 210 0.0 2.0 0.00 0.00 0.00 65 1017.9
20260902015720 86 212 0.0 2.0 0.00 0.00 0.00 63 1017.9
20260902015217 86 156 0.0 2.0 0.00 0.00 0.00 68 1017.9
20260902014712 87 310 0.0 1.0 0.00 0.00 0.00 63 1017.7
20260902014209 88 224 0.0 1.0 0.00 0.00 0.00 65 1017.7
20260902013707 88 224 0.0 2.0 0.00 0.00 0.00 62 1017.8
20260902013203 89 135 0.0 2.0 0.00 0.00 0.00 61 1017.4
20260902012658 89 230 0.0 2.0 0.00 0.00 0.00 58 1017.7
20260902012153 89 117 0.0 1.0 0.00 0.00 0.00 58 1017.7
20260902011649 89 89 0.0 2.0 0.00 0.00 0.00 57 1017.7
20260902011143 89 124 0.0 2.0 0.00 0.00 0.00 58 1017.4
20260902010642 90 107 0.0 2.0 0.00 0.00 0.00 57 1017.5
20260902010138 90 129 0.0 0.0 0.00 0.00 0.00 56 1017.5
20260902005636 90 308 0.0 2.0 0.00 0.00 0.00 56 1017.4
20260902005132 91 4 2.0 2.0 0.00 0.00 0.00 55 1017.5
20260902004631 91 147 0.0 2.0 0.00 0.00 0.00 55 1017.3
20260902004127 91 350 0.0 4.0 0.00 0.00 0.00 55 1017.2
20260902003622 91 117 1.0 2.0 0.00 0.00 0.00 57 1017.4
20260902003117 91 75 0.0 1.0 0.00 0.00 0.00 54 1017.5
20260902002613 92 185 0.0 5.0 0.00 0.00 0.00 54 1017.2
20260902002108 92 166 2.0 2.0 0.00 0.00 0.00 56 1017.5
20260902001603 93 180 0.0 3.0 0.00 0.00 0.00 52 1017.3
20260902001058 93 25 2.0 3.0 0.00 0.00 0.00 52 1017.2
20260902000552 93 333 0.0 2.0 0.00 0.00 0.00 51 1017.4
20260902000048 93 111 0.0 3.0 0.00 0.00 0.00 50 1017.6
20260901235547 93 139 0.0 2.0 0.00 0.00 0.00 50 1017.4
20260901235043 94 124 0.0 3.0 0.00 0.00 0.00 52 1017.5
20260901234542 95 164 4.0 5.0 0.00 0.00 0.00 48 1017.6
20260901234037 94 184 3.0 6.0 0.00 0.00 0.00 49 1017.6
20260901233537 95 185 0.0 3.0 0.00 0.00 0.00 50 1017.4
20260901233033 95 127 1.0 6.0 0.00 0.00 0.00 49 1017.6
20260901232528 95 164 0.0 2.0 0.00 0.00 0.00 49 1017.5
20260901232024 95 124 2.0 3.0 0.00 0.00 0.00 49 1017.5
20260901231520 95 89 0.0 5.0 0.00 0.00 0.00 48 1017.7
20260901231016 96 141 1.0 2.0 0.00 0.00 0.00 49 1017.7